Skip Page Navigation
NASA JPL Caltech
NASA Logo - Jet Propulsion Laboratory + View the NASA Portal
+ Center for Near-Earth Object Studies
JPL Home Earth Solar System Stars & Galaxies Technology
JPL Solar System Dynamics
BODIES ORBITS EPHEMERIDES TOOLS PHYSICAL DATA DISCOVERY FAQ SITE MAP
IMPORTANT: The SSD Announcement email list is now available. Major changes are coming in the near future, including possible hostname and/or URL changes. To be notified of such changes, subscribe to this email list.

Please visit this page for more details.


JPL Small-Body Database Browser
Search: [ help ]  
58634 (1997 WF3)
Classification: Main-belt Asteroid          SPK-ID: 2058634
Ephemeris | Orbit Diagram | Orbital Elements | Mission Design | Physical Parameters | Discovery Circumstances | Close-Approach Data ]

[ show orbit diagram ]
Orbital Elements at Epoch 2458600.5 (2019-Apr-27.0) TDB
Reference: JPL 22 (heliocentric ecliptic J2000)
 Element Value Uncertainty (1-sigma)   Units 
e .2041740854492781 4.4466e-08  
a 2.379661107375933 8.5033e-09 au
q 1.893795977098236 1.0645e-07 au
i .8674839005775338 4.2808e-06 deg
node 339.4260423566873 0.00024564 deg
peri 6.515745535285391 0.00024578 deg
M 5.541464042426488 8.7454e-06 deg
tp 2458579.860787876950
(2019-Apr-06.36078788)
3.2541e-05 TDB
period 1340.821903275295
3.67
7.1868e-06
1.968e-08
d
yr
n .268492033968575 1.4391e-09 deg/d
Q 2.865526237653631 1.0239e-08 au
  Orbit Determination Parameters
   # obs. used (total)      867  
   data-arc span      9571 days (26.20 yr)  
   first obs. used      1993-09-19  
   last obs. used      2019-12-03  
   planetary ephem.      DE431  
   SB-pert. ephem.      SB431-N16  
   condition code      0  
   norm. resid. RMS      .52743  
   source      ORB  
   producer      Otto Matic  
   solution date      2019-Dec-14 06:02:44  

Additional Information
 Earth MOID = .885729 au 
 Jupiter MOID = 2.54609 au 
 T_jup = 3.510 
[ show covariance matrix ]

Ephemeris | Orbit Diagram | Orbital Elements | Mission Design | Physical Parameters | Discovery Circumstances | Close-Approach Data ]

Physical Parameter Table
Parameter Symbol Value Units Sigma Reference Notes
absolute magnitude H 15.9   n/a MPO449377  

58634 (1997 WF3)          Discovered 1997-Nov-23 by Kobayashi, T. at Oizumi
Reference: 20030614/Numbers.arcLast Updated: 2004-04-19

[ show close-approach data ]
Alternate Designations
 1997 WF3 = 1993 UX9 = 2000 MX2 
Ephemeris | Orbit Diagram | Orbital Elements | Mission Design | Physical Parameters | Discovery Circumstances | Close-Approach Data ]
ABOUT SSD CREDITS/AWARDS PRIVACY/COPYRIGHT GLOSSARY LINKS
FirstGov 2020-Jan-21 00:50 UT
(server date/time)  
NASA Home Page
Site Manager:   Ryan S. Park
Webmaster  Alan B. Chamberlin